Regional Weather Roundup
Issued by NWS Green Bay, WI

Home | Current Version | Previous Version | Graphics & Text | Print | Product List | Glossary Off
Versions: 1 2 3 4 5 6 7 8 9 10 11 12 13 14 15 16 17 18 19 20 21 22 23 24 25 26 27 28 29 30 31 32 33 34 35 36 37 38 39 40 41 42 43 44 45 46 47 48 49 50

000
ASUS43 KGRB 270211
RWRGRB

NORTH-CENTRAL AND NORTHEAST WISCONSIN REGIONAL WEATHER ROUNDUP
NATIONAL WEATHER SERVICE GREEN BAY WI
900 PM CDT THU MAY 26 2016

WIZ005-009-010>012-018-019-270300-
NORTH CENTRAL WISCONSIN

CITY           SKY/WX    TMP DP  RH WIND       PRES   REMARKS
IRONWOOD       CLEAR     63  63 100 CALM      29.81R
MANITOWISH WTR NOT AVBL
ARBOR VITAE    CLEAR     64  59  83 CALM      29.85F
EAGLE RIVER      N/A     64  59  83 CALM      29.86R
LAND O LAKES   PTCLDY    64  62  94 CALM      29.87R
RHINELANDER    PTCLDY    67  56  67 SW5       29.87R
PHILLIPS       MOCLDY    67  59  75 CALM      29.83F
ANTIGO         PTCLDY    64  59  86 CALM      29.88S
TOMAHAWK       PTCLDY    63  58  84 CALM      29.86F
MERRILL        CLOUDY    65  61  86 CALM      29.86S
$$

WIZ013-073-270300-
NORTHEAST WISCONSIN

CITY           SKY/WX    TMP DP  RH WIND       PRES   REMARKS
IRON MOUNTAIN  CLOUDY    66  61  84 SE7       29.85R
MARINETTE      CLOUDY    61  59  93 CALM      29.88R
OCONTO         CLOUDY   N/A N/A N/A CALM      29.86R
$$

WIZ017-030-035>037-045-270300-
CENTRAL WISCONSIN

CITY           SKY/WX    TMP DP  RH WIND       PRES   REMARKS
MEDFORD        CLOUDY    67  60  80 S5        29.87R
WAUSAU         CLOUDY    70  60  70 CALM      29.84S
MOSINEE        CLEAR     66  61  82 CALM      29.87S
MARSHFIELD     CLOUDY    70  58  65 SW3       29.86R
WISC RAPIDS    CLOUDY    67  59  75 SW3       29.87R
STEVENS POINT  PTCLDY    65  60  83 CALM      29.87R
WAUPACA        CLOUDY    69  64  84 CALM      29.87R
SHAWANO        CLOUDY    68  61  77 CALM      29.86S
CLINTONVILLE   MOCLDY    64  59  82 CALM      29.86R
WAUTOMA        PTCLDY    68  64  87 CALM      29.88R
$$

WIZ038-039-048-051-270300-
FOX VALLEY

CITY           SKY/WX    TMP DP  RH WIND       PRES   REMARKS
NWS GREEN BAY  CLEAR     70  61  73 CALM      29.86R
APPLETON       MOCLDY    72  55  56 W3        29.86R
OSHKOSH        CLEAR     67  59  75 CALM      29.86R
FOND DU LAC    CLEAR     68  59  73 CALM      29.87R
$$

WIZ022-050-052-270300-
EAST CENTRAL WISCONSIN

CITY           SKY/WX    TMP DP  RH WIND       PRES   REMARKS
EPHRAIM        FAIR      59  57  93 S3        29.87R
STURGEON BAY   NOT AVBL
MANITOWOC      PTCLDY    62  56  80 E3        29.88R
SHEBOYGAN      CLEAR     64  59  83 CALM      29.87R
$$

LMZ563-521-522-541>543-270300-
LAKESHORE

STATION/POSITION TIME  TEMP    WIND        PRES    VSBY  WAVE
                       AIR SEA DIR/SP/G                  HT/PER
                 (UTC) (F)     (DEG/KT/KT) (MB)    (MI)  (FT/S)
SHEBOYGAN LKSHOR 0200   64     200/  5/  5 1011.9R
KEWAUNEE LKSHORE 0100                      1010.3R
ALGOMA MARINA    0117             CALM       N/A
NORTHPORT PIER   0100   62     180/  3/  5 1010.5R
N MID LAKE BUOY  0150   48 45  210/  4/  6 1011.3R         2/ 5
SISTER BAY LKSHO 0104   63     150/  6/  7   N/A
CHAMBERS ISLAND  0100   63     110/  3/  5 1010.5R
MENOMINEE LKSHOR 0100                      1009.4R
$$




USA.gov is the U.S. government's official web portal to all federal, state and local government web resources and services.